Precipitable_Water
0.42 0.40 0.41 0.42 0.44 0.43 0.44 0.47 0.50 0.54 0.58 0.58 0.58 0.56 0.55 0.55 0.53 0.50 0.48 0.47 0.47 0.50 0.53 0.52 0.52 0.55 0.55 0.57 0.60 0.63 0.67 0.71 0.71 0.70 0.71 0.82 0.80 0.89 1.09 1.13 1.14 1.18 1.25 1.21 1.22 1.07 0.98 0.91 1.00 1.19 1.24 1.27 1.29 1.28 1.27 1.25 1.24 1.22 1.19 1.18 1.14 1.12 1.12
0.47 0.43 0.45 0.47 0.44 0.45 0.43 0.48 0.50 0.53 0.56 0.60 0.61 0.59 0.57 0.56 0.52 0.47 0.43 0.41 0.40 0.42 0.45 0.46 0.52 0.55 0.56 0.56 0.58 0.59 0.61 0.63 0.65 0.69 0.69 0.70 0.71 0.71 0.77 0.83 0.98 1.07 1.15 1.15 1.15 1.16 1.01 0.91 0.91 1.00 1.07 1.23 1.28 1.33 1.33 1.33 1.32 1.31 1.28 1.24 1.23 1.21 1.19
0.47 0.45 0.46 0.46 0.45 0.44 0.41 0.46 0.49 0.51 0.52 0.56 0.58 0.58 0.57 0.55 0.51 0.47 0.42 0.39 0.39 0.39 0.38 0.38 0.40 0.44 0.49 0.53 0.57 0.59 0.62 0.61 0.64 0.61 0.59 0.65 0.72 0.74 0.74 0.73 0.69 0.73 0.80 0.84 0.91 1.00 1.08 1.10 0.93 0.93 1.06 1.11 1.07 1.20 1.35 1.35 1.34 1.33 1.31 1.31 1.30 1.29 1.28
0.48 0.45 0.45 0.46 0.46 0.44 0.40 0.42 0.45 0.49 0.53 0.52 0.53 0.55 0.54 0.53 0.49 0.46 0.44 0.44 0.45 0.44 0.43 0.42 0.40 0.40 0.42 0.42 0.44 0.48 0.52 0.55 0.61 0.63 0.62 0.61 0.63 0.65 0.70 0.73 0.67 0.63 0.58 0.56 0.60 0.72 0.80 0.82 0.92 0.97 1.03 1.13 1.13 1.11 1.23 1.33 1.33 1.34 1.33 1.32 1.30 1.31 1.30
0.49 0.47 0.46 0.45 0.46 0.43 0.42 0.41 0.46 0.49 0.50 0.53 0.52 0.52 0.52 0.51 0.50 0.48 0.47 0.46 0.45 0.45 0.45 0.45 0.46 0.45 0.45 0.45 0.43 0.42 0.42 0.45 0.49 0.53 0.58 0.59 0.59 0.59 0.65 0.75 0.79 0.82 0.82 0.78 0.74 0.73 0.71 0.72 0.82 0.94 1.04 1.08 1.11 1.13 1.21 1.26 1.34 1.34 1.35 1.35 1.35 1.34 1.33
0.49 0.48 0.48 0.46 0.46 0.44 0.43 0.42 0.44 0.45 0.48 0.49 0.49 0.49 0.52 0.52 0.51 0.48 0.46 0.45 0.45 0.45 0.44 0.44 0.44 0.44 0.44 0.43 0.42 0.43 0.44 0.43 0.42 0.43 0.44 0.51 0.56 0.55 0.55 0.64 0.73 0.80 0.83 0.89 0.94 0.96 0.93 0.85 0.77 0.72 0.88 1.10 1.03 1.02 1.12 1.19 1.17 1.23 1.26 1.31 1.39 1.41 1.39
0.49 0.49 0.47 0.46 0.47 0.45 0.45 0.44 0.44 0.46 0.45 0.46 0.48 0.48 0.53 0.54 0.52 0.50 0.48 0.47 0.47 0.46 0.46 0.46 0.46 0.46 0.45 0.43 0.42 0.41 0.40 0.43 0.44 0.44 0.43 0.45 0.48 0.53 0.57 0.55 0.58 0.67 0.76 0.85 0.91 0.93 0.92 0.92 0.89 0.81 0.73 0.80 0.89 0.87 0.96 1.01 1.07 1.07 1.13 1.22 1.29 1.36 1.39
0.49 0.49 0.49 0.49 0.49 0.47 0.47 0.47 0.46 0.47 0.45 0.47 0.49 0.51 0.55 0.53 0.51 0.50 0.49 0.48 0.48 0.47 0.47 0.46 0.46 0.45 0.44 0.43 0.43 0.42 0.42 0.43 0.40 0.40 0.42 0.43 0.42 0.44 0.48 0.52 0.53 0.56 0.62 0.71 0.79 0.84 0.91 0.90 0.91 0.97 0.95 0.80 0.74 0.79 0.78 0.86 0.91 0.96 1.00 1.15 1.23 1.25 1.30
0.52 0.51 0.52 0.52 0.52 0.50 0.49 0.49 0.48 0.48 0.49 0.49 0.51 0.52 0.53 0.52 0.50 0.50 0.51 0.51 0.51 0.50 0.49 0.49 0.49 0.48 0.47 0.44 0.43 0.42 0.40 0.43 0.40 0.38 0.39 0.41 0.43 0.45 0.47 0.50 0.50 0.51 0.56 0.60 0.66 0.76 0.82 0.87 0.91 0.96 0.96 0.92 0.81 0.67 0.73 0.72 0.75 0.76 0.88 0.91 1.10 1.22 1.26
0.52 0.50 0.50 0.51 0.52 0.53 0.52 0.52 0.50 0.51 0.52 0.51 0.51 0.53 0.52 0.53 0.53 0.52 0.51 0.52 0.52 0.51 0.50 0.51 0.50 0.49 0.48 0.47 0.45 0.43 0.41 0.42 0.42 0.41 0.41 0.40 0.40 0.43 0.45 0.48 0.50 0.51 0.54 0.58 0.61 0.66 0.72 0.78 0.83 0.90 0.94 0.87 0.90 0.84 0.71 0.66 0.67 0.64 0.69 0.82 0.79 0.95 1.16
0.54 0.53 0.52 0.52 0.53 0.53 0.54 0.53 0.53 0.52 0.53 0.53 0.52 0.53 0.53 0.53 0.53 0.54 0.52 0.52 0.51 0.51 0.51 0.51 0.49 0.48 0.46 0.45 0.45 0.45 0.45 0.44 0.42 0.42 0.43 0.44 0.43 0.43 0.42 0.44 0.47 0.49 0.54 0.56 0.57 0.58 0.60 0.65 0.73 0.80 0.81 0.83 0.87 0.82 0.80 0.69 0.66 0.77 0.75 0.83 0.85 0.82 0.95
0.56 0.54 0.54 0.54 0.54 0.52 0.52 0.52 0.52 0.53 0.54 0.54 0.53 0.53 0.53 0.53 0.54 0.53 0.53 0.50 0.50 0.50 0.51 0.50 0.48 0.46 0.44 0.43 0.44 0.43 0.44 0.44 0.42 0.40 0.43 0.44 0.44 0.44 0.42 0.40 0.42 0.44 0.48 0.52 0.55 0.58 0.60 0.61 0.62 0.68 0.76 0.79 0.73 0.73 0.76 0.77 0.71 0.80 0.88 0.74 0.78 0.88 0.90
0.58 0.56 0.56 0.55 0.54 0.52 0.52 0.52 0.52 0.52 0.53 0.53 0.52 0.52 0.52 0.52 0.52 0.51 0.50 0.49 0.50 0.50 0.49 0.49 0.47 0.45 0.44 0.43 0.43 0.43 0.44 0.44 0.42 0.40 0.40 0.42 0.44 0.45 0.43 0.41 0.41 0.41 0.42 0.45 0.48 0.52 0.56 0.59 0.61 0.61 0.65 0.70 0.76 0.78 0.70 0.67 0.68 0.64 0.78 0.81 0.84 0.90 0.93
0.58 0.58 0.57 0.57 0.55 0.54 0.54 0.54 0.53 0.54 0.53 0.50 0.50 0.50 0.50 0.51 0.50 0.47 0.47 0.49 0.49 0.49 0.48 0.47 0.47 0.45 0.44 0.43 0.44 0.44 0.45 0.45 0.43 0.43 0.42 0.41 0.41 0.42 0.43 0.43 0.43 0.43 0.43 0.41 0.42 0.45 0.49 0.54 0.58 0.59 0.63 0.71 0.76 0.82 0.84 0.73 0.56 0.52 0.59 0.75 0.83 0.85 0.93
0.60 0.58 0.57 0.57 0.55 0.55 0.54 0.54 0.55 0.54 0.49 0.48 0.49 0.49 0.49 0.47 0.45 0.46 0.47 0.48 0.48 0.48 0.47 0.46 0.45 0.44 0.43 0.42 0.42 0.44 0.44 0.44 0.44 0.43 0.43 0.41 0.41 0.41 0.41 0.39 0.40 0.44 0.47 0.44 0.41 0.40 0.43 0.47 0.52 0.53 0.55 0.61 0.68 0.80 0.94 0.92 0.80 0.58 0.43 0.55 0.67 0.78 0.83
0.61 0.58 0.57 0.57 0.56 0.55 0.54 0.54 0.55 0.52 0.49 0.47 0.49 0.48 0.46 0.45 0.45 0.46 0.47 0.48 0.48 0.47 0.46 0.45 0.44 0.43 0.42 0.41 0.40 0.41 0.43 0.43 0.42 0.42 0.41 0.42 0.42 0.43 0.42 0.41 0.40 0.44 0.48 0.46 0.44 0.43 0.42 0.43 0.48 0.52 0.53 0.57 0.61 0.70 0.86 0.97 0.96 0.86 0.74 0.66 0.76 0.74 0.74
0.62 0.58 0.56 0.57 0.57 0.56 0.56 0.55 0.54 0.51 0.48 0.47 0.46 0.47 0.46 0.45 0.46 0.47 0.47 0.47 0.46 0.45 0.44 0.43 0.42 0.42 0.40 0.40 0.39 0.39 0.40 0.40 0.40 0.40 0.40 0.41 0.42 0.43 0.43 0.42 0.42 0.44 0.47 0.47 0.47 0.46 0.45 0.44 0.43 0.47 0.52 0.55 0.58 0.61 0.74 0.87 0.94 0.91 0.86 0.73 0.73 0.78 0.79
0.64 0.61 0.59 0.59 0.58 0.57 0.55 0.54 0.52 0.49 0.48 0.47 0.47 0.47 0.47 0.48 0.48 0.48 0.46 0.45 0.44 0.43 0.43 0.42 0.41 0.40 0.40 0.41 0.40 0.40 0.40 0.40 0.40 0.40 0.40 0.41 0.42 0.42 0.43 0.42 0.43 0.44 0.46 0.46 0.48 0.48 0.48 0.46 0.44 0.43 0.45 0.52 0.56 0.59 0.64 0.72 0.78 0.85 0.82 0.78 0.86 0.99 0.96
0.66 0.64 0.64 0.63 0.61 0.58 0.56 0.53 0.52 0.51 0.50 0.47 0.47 0.48 0.48 0.49 0.48 0.47 0.46 0.45 0.44 0.43 0.43 0.41 0.40 0.40 0.40 0.41 0.41 0.41 0.41 0.40 0.40 0.40 0.41 0.42 0.42 0.43 0.43 0.43 0.43 0.44 0.44 0.45 0.46 0.49 0.51 0.50 0.48 0.44 0.42 0.45 0.52 0.58 0.59 0.63 0.70 0.77 0.83 0.86 0.89 0.91 1.02
0.70 0.68 0.68 0.67 0.64 0.61 0.58 0.56 0.54 0.52 0.52 0.50 0.48 0.48 0.48 0.48 0.48 0.47 0.46 0.45 0.44 0.42 0.41 0.41 0.40 0.39 0.39 0.39 0.39 0.39 0.40 0.40 0.41 0.41 0.42 0.42 0.44 0.44 0.44 0.44 0.44 0.44 0.44 0.44 0.45 0.46 0.49 0.51 0.51 0.49 0.46 0.44 0.47 0.53 0.55 0.57 0.62 0.66 0.73 0.80 0.88 0.94 0.93
0.73 0.72 0.73 0.71 0.67 0.63 0.61 0.59 0.56 0.55 0.54 0.51 0.49 0.49 0.48 0.47 0.47 0.46 0.45 0.43 0.42 0.42 0.41 0.40 0.38 0.38 0.37 0.37 0.36 0.37 0.37 0.37 0.38 0.40 0.41 0.42 0.43 0.44 0.45 0.46 0.46 0.46 0.46 0.46 0.46 0.47 0.48 0.48 0.51 0.51 0.52 0.49 0.45 0.46 0.48 0.51 0.55 0.59 0.64 0.69 0.76 0.83 0.89
0.78 0.78 0.76 0.74 0.69 0.65 0.62 0.60 0.59 0.57 0.54 0.52 0.50 0.49 0.49 0.48 0.46 0.44 0.43 0.41 0.41 0.42 0.40 0.39 0.38 0.37 0.36 0.35 0.33 0.32 0.32 0.33 0.35 0.35 0.37 0.38 0.40 0.41 0.42 0.43 0.44 0.45 0.46 0.47 0.48 0.48 0.49 0.50 0.50 0.49 0.52 0.53 0.49 0.45 0.44 0.47 0.49 0.51 0.55 0.62 0.66 0.76 0.82
0.82 0.83 0.81 0.76 0.71 0.67 0.64 0.62 0.59 0.56 0.53 0.51 0.50 0.50 0.49 0.48 0.45 0.42 0.41 0.41 0.41 0.40 0.39 0.39 0.38 0.37 0.36 0.34 0.32 0.31 0.31 0.33 0.35 0.35 0.35 0.36 0.37 0.38 0.40 0.41 0.42 0.43 0.44 0.45 0.46 0.46 0.45 0.45 0.46 0.47 0.48 0.52 0.53 0.50 0.46 0.43 0.43 0.45 0.48 0.50 0.57 0.66 0.70
0.86 0.85 0.82 0.79 0.73 0.68 0.65 0.63 0.59 0.56 0.53 0.51 0.50 0.50 0.49 0.45 0.43 0.43 0.41 0.40 0.39 0.38 0.38 0.38 0.37 0.36 0.35 0.34 0.33 0.32 0.32 0.34 0.35 0.35 0.36 0.35 0.35 0.36 0.38 0.39 0.40 0.41 0.41 0.42 0.44 0.45 0.46 0.46 0.46 0.46 0.47 0.49 0.51 0.52 0.51 0.47 0.44 0.43 0.43 0.44 0.48 0.56 0.61
0.87 0.85 0.82 0.79 0.74 0.70 0.67 0.62 0.58 0.56 0.54 0.52 0.52 0.51 0.47 0.45 0.44 0.43 0.42 0.40 0.38 0.38 0.37 0.37 0.37 0.36 0.36 0.35 0.34 0.34 0.35 0.35 0.36 0.36 0.36 0.36 0.36 0.36 0.37 0.38 0.39 0.41 0.41 0.41 0.41 0.41 0.43 0.45 0.46 0.47 0.47 0.48 0.49 0.51 0.54 0.54 0.51 0.47 0.44 0.42 0.41 0.44 0.51
0.87 0.84 0.80 0.78 0.74 0.71 0.64 0.61 0.59 0.58 0.56 0.56 0.53 0.49 0.47 0.46 0.44 0.43 0.41 0.38 0.37 0.37 0.36 0.36 0.36 0.35 0.34 0.34 0.35 0.36 0.37 0.37 0.36 0.36 0.37 0.37 0.37 0.36 0.36 0.36 0.37 0.39 0.40 0.41 0.41 0.42 0.41 0.42 0.43 0.45 0.47 0.48 0.48 0.49 0.51 0.52 0.55 0.55 0.53 0.48 0.43 0.40 0.43
0.79 0.79 0.79 0.77 0.73 0.68 0.64 0.60 0.61 0.61 0.59 0.56 0.52 0.49 0.47 0.44 0.43 0.40 0.38 0.37 0.35 0.35 0.33 0.33 0.32 0.32 0.32 0.33 0.35 0.36 0.37 0.37 0.37 0.37 0.37 0.37 0.37 0.37 0.37 0.36 0.36 0.36 0.38 0.39 0.40 0.40 0.41 0.41 0.41 0.42 0.43 0.45 0.46 0.47 0.49 0.50 0.52 0.54 0.56 0.55 0.53 0.47 0.45
0.73 0.73 0.76 0.75 0.70 0.65 0.63 0.62 0.62 0.61 0.57 0.54 0.51 0.48 0.45 0.42 0.40 0.38 0.36 0.33 0.31 0.28 0.28 0.28 0.29 0.30 0.31 0.33 0.35 0.37 0.37 0.38 0.37 0.37 0.38 0.38 0.38 0.38 0.38 0.38 0.37 0.36 0.37 0.38 0.39 0.40 0.40 0.40 0.40 0.40 0.41 0.41 0.43 0.45 0.47 0.48 0.50 0.52 0.54 0.57 0.58 0.57 0.56
0.73 0.73 0.72 0.70 0.67 0.64 0.63 0.62 0.60 0.59 0.56 0.54 0.52 0.47 0.44 0.41 0.37 0.33 0.30 0.27 0.25 0.26 0.28 0.30 0.31 0.32 0.33 0.34 0.35 0.36 0.36 0.36 0.36 0.37 0.38 0.38 0.39 0.39 0.39 0.39 0.38 0.38 0.38 0.37 0.38 0.39 0.40 0.40 0.40 0.39 0.39 0.40 0.41 0.42 0.43 0.46 0.51 0.54 0.55 0.55 0.57 0.58 0.59
0.77 0.74 0.70 0.67 0.64 0.62 0.62 0.61 0.59 0.58 0.54 0.50 0.45 0.43 0.39 0.34 0.31 0.28 0.25 0.24 0.24 0.24 0.26 0.28 0.31 0.32 0.33 0.34 0.35 0.35 0.35 0.35 0.36 0.36 0.37 0.38 0.39 0.40 0.40 0.40 0.40 0.39 0.39 0.39 0.40 0.41 0.41 0.41 0.40 0.38 0.38 0.38 0.40 0.41 0.41 0.45 0.49 0.49 0.51 0.53 0.54 0.56 0.56
0.78 0.73 0.69 0.65 0.61 0.61 0.61 0.60 0.57 0.55 0.49 0.44 0.40 0.37 0.33 0.31 0.29 0.27 0.24 0.23 0.23 0.23 0.24 0.26 0.29 0.31 0.33 0.34 0.35 0.34 0.35 0.35 0.35 0.36 0.37 0.39 0.40 0.40 0.40 0.41 0.41 0.41 0.40 0.40 0.41 0.42 0.42 0.42 0.40 0.39 0.39 0.38 0.38 0.38 0.40 0.44 0.47 0.48 0.51 0.52 0.52 0.53 0.55
0.71 0.70 0.66 0.61 0.62 0.61 0.59 0.56 0.56 0.52 0.46 0.41 0.37 0.36 0.34 0.32 0.29 0.27 0.25 0.24 0.24 0.23 0.24 0.26 0.29 0.31 0.33 0.34 0.35 0.35 0.35 0.35 0.35 0.36 0.37 0.37 0.39 0.40 0.40 0.41 0.41 0.41 0.42 0.42 0.43 0.43 0.43 0.43 0.42 0.41 0.41 0.40 0.37 0.37 0.39 0.44 0.44 0.44 0.47 0.48 0.49 0.52 0.53
0.72 0.67 0.63 0.63 0.62 0.60 0.59 0.55 0.49 0.44 0.41 0.39 0.37 0.36 0.35 0.33 0.29 0.26 0.25 0.24 0.23 0.22 0.22 0.24 0.28 0.30 0.32 0.33 0.35 0.36 0.36 0.36 0.35 0.36 0.37 0.37 0.37 0.38 0.39 0.39 0.40 0.41 0.42 0.43 0.44 0.45 0.45 0.45 0.44 0.43 0.42 0.40 0.38 0.37 0.43 0.45 0.45 0.45 0.45 0.46 0.47 0.50 0.51
0.70 0.66 0.64 0.62 0.60 0.56 0.52 0.46 0.44 0.42 0.39 0.38 0.36 0.35 0.34 0.33 0.30 0.26 0.24 0.23 0.22 0.22 0.22 0.24 0.27 0.30 0.32 0.34 0.36 0.37 0.37 0.37 0.37 0.37 0.36 0.36 0.36 0.36 0.37 0.39 0.41 0.44 0.45 0.46 0.47 0.47 0.47 0.47 0.47 0.46 0.44 0.42 0.42 0.44 0.46 0.45 0.46 0.48 0.46 0.46 0.47 0.48 0.49
0.66 0.63 0.60 0.55 0.50 0.48 0.48 0.46 0.43 0.41 0.39 0.37 0.34 0.33 0.33 0.31 0.28 0.25 0.23 0.22 0.22 0.22 0.23 0.25 0.27 0.30 0.32 0.34 0.36 0.38 0.38 0.38 0.39 0.38 0.36 0.36 0.37 0.38 0.41 0.43 0.45 0.47 0.49 0.50 0.50 0.51 0.51 0.51 0.51 0.50 0.48 0.48 0.48 0.48 0.47 0.47 0.47 0.47 0.45 0.45 0.45 0.45 0.46
0.57 0.54 0.51 0.50 0.50 0.47 0.46 0.43 0.41 0.39 0.36 0.35 0.33 0.32 0.30 0.28 0.26 0.23 0.21 0.21 0.22 0.23 0.24 0.26 0.28 0.30 0.33 0.35 0.37 0.38 0.39 0.39 0.40 0.40 0.39 0.38 0.40 0.42 0.46 0.48 0.50 0.52 0.53 0.54 0.55 0.55 0.55 0.55 0.54 0.53 0.52 0.52 0.51 0.51 0.50 0.49 0.49 0.47 0.46 0.44 0.44 0.43 0.44
0.52 0.52 0.51 0.49 0.48 0.44 0.42 0.39 0.38 0.37 0.36 0.33 0.31 0.29 0.28 0.27 0.24 0.21 0.20 0.21 0.22 0.24 0.26 0.27 0.28 0.30 0.33 0.36 0.37 0.38 0.39 0.40 0.41 0.42 0.44 0.44 0.45 0.47 0.49 0.51 0.53 0.55 0.57 0.58 0.59 0.59 0.59 0.59 0.58 0.58 0.57 0.55 0.54 0.53 0.52 0.51 0.50 0.49 0.48 0.46 0.44 0.43 0.43
Wind_Speed
12 12 12 11 11 10 10 10 10 10 9 9 9 9 9 10 10 11 12 13 14 15 16 16 17 17 18 18 19 19 19 20 20 20 21 21 22 23 24 25 25 26 27 26 26 26 26 26 26 27 28 29 29 29 29 29 28 28 28 27 27 28 28
13 13 13 12 12 11 11 11 11 11 11 10 10 10 10 10 10 10 11 12 13 13 14 15 16 17 17 18 19 19 20 20 21 21 21 22 22 23 24 25 25 26 27 27 27 27 28 28 28 28 28 28 29 29 29 29 29 29 29 28 28 28 29
14 14 14 13 13 12 12 12 12 12 12 12 12 11 11 11 11 10 11 11 12 13 13 14 15 16 16 17 18 19 20 20 21 22 22 23 23 23 24 25 26 26 26 27 27 27 28 29 30 30 30 30 29 29 29 29 30 30 30 30 29 29 29
15 15 15 14 14 14 13 13 13 13 13 13 13 13 13 12 12 12 12 12 12 13 13 14 15 15 16 17 18 18 19 20 21 22 22 23 24 24 24 25 26 26 27 27 28 28 28 28 29 31 32 32 31 30 30 30 31 31 31 31 31 30 31
17 16 16 16 15 15 14 14 14 14 14 14 14 14 14 14 13 13 13 13 13 14 14 15 15 16 17 18 18 19 19 20 20 21 22 23 24 24 25 25 25 26 27 27 28 28 29 29 29 30 32 33 33 33 32 32 32 32 32 32 32 32 32
18 17 17 16 16 16 15 15 15 15 14 14 14 14 15 15 14 14 14 15 15 15 15 16 16 17 17 18 19 20 20 21 21 21 22 22 23 24 25 26 26 26 27 27 27 28 29 29 29 29 30 32 33 34 34 34 35 35 34 34 33 33 33
18 18 18 17 17 17 17 16 16 16 15 15 15 15 16 15 15 15 16 16 16 16 16 16 16 17 17 18 19 20 21 21 22 22 22 22 23 24 24 25 26 26 27 27 27 28 29 29 29 29 29 31 33 34 34 35 36 36 37 36 36 35 34
19 19 18 18 18 18 17 17 17 17 16 16 16 16 16 16 16 16 17 17 17 17 17 17 17 17 18 18 19 20 20 21 22 23 23 23 23 24 24 25 26 26 27 27 28 28 29 29 30 30 30 31 32 33 33 34 35 36 36 37 37 37 37
19 19 19 19 19 19 18 18 18 18 17 17 17 17 17 17 17 17 18 18 18 18 18 18 18 19 19 19 20 20 21 21 22 23 23 24 24 25 25 26 26 27 27 28 28 29 29 30 30 30 31 31 32 32 33 33 34 34 35 35 36 37 37
19 19 19 19 19 19 19 19 19 19 18 18 18 18 18 18 18 18 18 19 19 19 19 19 19 20 20 21 21 21 22 22 23 23 24 25 26 26 26 27 27 27 28 28 29 29 30 30 31 32 32 32 32 32 33 34 34 34 34 34 34 35 36
20 20 20 20 20 20 20 20 20 20 19 19 19 19 19 19 19 19 19 20 20 20 20 20 21 21 21 22 23 23 23 23 24 25 25 26 27 27 28 28 29 29 29 29 30 30 30 31 32 33 33 34 34 34 34 34 35 34 34 34 34 34 34
21 21 20 20 20 20 21 21 20 20 20 20 20 20 20 20 20 21 21 21 21 21 21 21 22 22 23 23 24 24 25 25 25 26 26 27 28 28 29 30 30 30 31 31 31 31 31 32 32 33 33 34 35 37 36 35 35 35 34 35 35 35 35
22 21 21 21 21 21 21 21 21 21 21 21 21 21 21 22 22 22 22 22 22 22 22 23 23 24 24 25 25 26 26 26 27 27 27 28 29 30 30 31 31 32 32 32 33 33 33 33 33 34 34 34 35 37 37 37 37 36 36 36 36 36 36
22 22 22 22 22 22 22 22 22 22 22 22 22 22 22 22 23 23 23 23 23 23 24 24 25 25 26 26 27 27 28 28 28 29 29 30 30 30 31 32 32 33 33 33 34 34 34 35 35 35 35 35 35 35 36 38 39 38 37 37 37 37 37
22 22 22 22 22 22 22 22 22 22 22 22 22 22 22 23 23 23 23 23 24 24 25 26 26 27 27 28 28 28 29 30 30 31 31 32 32 32 32 33 33 34 34 34 35 35 35 36 36 36 36 36 36 35 35 37 38 38 38 37 37 37 37
23 22 22 22 22 22 22 22 22 22 22 22 22 23 23 23 23 23 24 24 25 25 26 27 27 28 28 29 29 30 31 31 32 32 33 33 34 34 34 34 34 34 34 35 35 35 36 36 37 37 38 37 37 36 36 36 37 38 38 37 37 37 38
23 23 23 23 22 22 22 22 22 22 22 23 23 23 24 24 24 24 24 25 25 26 27 27 28 29 30 30 31 32 32 33 33 34 34 34 35 35 35 35 35 35 35 36 36 36 36 36 37 38 38 38 38 38 37 37 37 37 37 37 37 37 38
25 24 24 24 23 23 22 22 22 23 23 23 24 24 24 24 24 24 25 25 26 27 28 29 29 30 31 31 32 33 33 34 34 34 35 35 35 36 36 36 36 36 37 37 37 37 37 37 37 38 39 39 39 39 38 38 38 38 37 37 37 37 37
25 25 25 25 24 24 23 23 23 23 23 23 24 24 24 24 24 25 25 26 27 28 29 30 30 31 31 32 33 34 34 35 35 35 36 36 36 37 37 37 37 37 38 38 38 38 38 38 38 38 39 39 39 40 40 39 38 38 38 38 38 37 38
26 26 26 25 24 24 24 23 23 23 23 23 23 24 24 24 24 25 26 27 28 29 29 30 31 31 32 33 34 35 35 36 36 36 36 37 37 37 38 38 39 39 39 39 39 39 39 39 39 39 39 39 40 40 40 40 39 38 38 38 38 37 38
28 27 27 26 25 24 24 24 23 23 23 23 23 23 23 24 24 25 26 27 28 29 29 30 31 32 33 34 35 36 36 37 37 37 37 38 38 38 39 39 40 40 40 40 40 40 40 40 40 40 39 40 40 41 41 41 41 40 39 39 38 37 37
28 28 27 27 26 25 25 25 24 24 24 24 24 24 24 24 25 26 27 28 28 29 29 31 32 33 34 35 36 37 37 38 38 38 38 39 39 39 40 40 40 41 41 42 42 42 42 42 42 42 41 41 41 41 42 42 42 42 42 41 40 39 38
28 28 27 26 26 26 25 25 25 24 25 25 25 25 25 25 26 27 27 28 28 29 30 31 33 34 35 36 37 37 38 38 38 39 39 39 40 40 41 41 41 42 43 43 43 44 44 44 44 44 44 43 43 43 43 43 43 43 43 43 42 41 40
29 28 27 26 26 26 26 25 25 25 25 26 26 26 26 26 27 27 28 28 29 30 31 33 34 35 36 37 38 38 39 39 39 40 40 41 41 41 42 42 42 43 43 43 44 44 44 45 45 45 45 45 45 45 44 44 44 44 44 44 44 43 42
29 28 28 28 28 27 26 26 26 26 26 26 26 27 27 27 27 28 28 29 30 32 33 35 36 37 38 39 39 39 39 40 40 41 41 42 42 43 43 43 43 44 44 44 45 45 46 46 46 46 46 46 46 47 46 46 45 45 44 45 45 45 45
30 28 28 29 28 27 27 27 27 27 27 27 27 27 27 27 27 28 30 31 33 34 35 36 38 38 39 40 40 40 40 41 41 42 42 43 43 44 44 45 45 45 45 46 46 46 47 47 47 47 47 47 47 48 48 48 48 47 46 46 46 47 46
32 30 28 28 28 28 27 27 27 27 27 27 27 27 27 27 28 30 31 33 34 35 36 37 39 39 40 40 41 41 42 42 42 43 43 43 44 44 45 45 45 46 46 46 46 47 47 48 48 48 48 48 48 48 48 49 49 48 48 47 47 47 46
33 31 29 27 26 26 26 27 27 27 27 27 27 27 27 28 29 31 32 33 34 35 37 38 39 39 40 41 42 42 43 43 43 43 43 43 44 44 44 45 45 45 46 46 46 47 48 48 49 49 49 50 50 49 49 49 48 48 48 47 47 46 45
32 31 29 27 26 26 26 27 27 27 27 26 26 27 27 28 30 31 32 32 34 35 36 37 39 39 40 41 42 43 43 43 43 43 43 43 44 44 44 44 45 45 46 46 46 47 48 49 50 50 50 51 51 51 51 50 50 50 50 49 49 48 46
28 28 28 28 27 27 27 27 26 26 26 26 26 27 28 29 29 30 31 32 33 35 36 37 39 40 41 42 43 43 43 43 43 43 44 43 44 44 44 45 45 46 46 47 47 47 48 49 50 51 51 52 51 51 51 51 51 51 51 52 51 51 49
27 26 27 27 27 27 26 25 25 25 25 26 27 27 28 28 29 30 32 33 34 36 37 39 40 41 42 43 43 43 43 43 43 43 43 44 44 44 45 46 46 47 47 48 48 48 49 49 50 51 52 52 52 52 51 50 50 50 51 51 52 52 51
29 27 27 27 26 26 25 24 24 24 25 26 26 27 28 29 30 31 32 33 35 37 39 40 41 42 43 43 44 44 43 43 43 43 43 44 44 45 45 46 47 47 48 48 49 49 49 50 50 51 51 52 53 52 51 50 50 50 50 50 50 50 51
28 28 27 26 26 25 24 23 23 24 25 26 27 28 29 30 31 32 33 34 36 37 39 41 42 43 43 44 44 44 43 43 43 44 44 45 45 46 46 46 47 48 49 49 49 50 50 50 51 51 51 52 53 52 51 50 51 51 50 50 50 50 50
24 24 25 25 25 25 25 24 25 25 26 27 28 29 30 30 31 32 33 35 36 38 40 41 42 43 44 44 44 43 42 43 43 44 45 45 45 45 45 46 46 47 48 49 49 49 50 50 50 51 51 52 52 52 51 51 51 51 51 51 50 50 50
23 23 23 23 24 25 25 25 26 26 27 28 28 28 29 29 30 32 34 35 37 38 40 41 42 44 44 44 43 43 43 43 44 44 44 44 44 44 44 45 46 46 47 47 48 48 48 49 49 50 51 51 52 52 52 52 52 52 52 52 51 51 50
24 23 22 22 22 23 24 24 25 26 26 27 27 27 28 29 31 33 35 36 37 38 40 41 43 44 44 43 43 42 42 43 43 43 43 43 43 43 44 44 45 45 45 45 46 46 46 47 48 48 49 50 51 51 51 51 51 51 52 52 52 52 51
22 21 21 21 21 21 22 23 23 24 24 25 25 27 28 30 31 33 35 36 38 39 40 42 43 43 43 42 42 42 42 42 42 42 42 43 43 43 43 42 42 42 42 42 42 42 43 44 44 45 46 48 49 49 50 50 50 50 50 51 51 51 50
Wind_Direction
241 242 244 245 247 248 249 251 252 252 252 250 248 248 247 245 245 246 246 246 246 246 247 247 249 250 251 252 252 251 251 250 250 250 249 249 248 248 249 250 251 250 250 252 251 249 249 250 250 250 249 249 248 248 248 248 249 249 250 251 252 253 252
242 242 244 246 247 247 247 249 250 252 252 250 247 247 247 247 248 249 249 249 249 250 250 250 251 252 252 253 253 253 253 253 252 251 251 251 250 250 251 251 252 252 252 253 253 251 250 251 251 251 250 250 249 249 248 248 249 250 252 252 253 254 253
242 243 246 248 248 248 248 248 249 249 250 250 249 248 248 249 249 250 251 252 253 253 253 254 253 254 254 254 255 255 255 256 256 255 254 254 253 253 253 253 253 253 253 253 253 253 253 253 253 252 250 250 249 249 249 248 249 251 252 253 254 254 254
243 245 247 249 251 251 251 250 250 249 249 250 250 251 251 251 251 252 253 254 256 256 256 257 257 257 257 257 257 257 257 257 257 257 257 257 256 255 255 255 254 254 254 254 254 254 254 255 255 253 250 249 249 249 249 249 250 251 252 253 253 253 254
245 247 249 250 252 252 252 252 251 251 251 251 251 252 253 253 254 256 258 259 261 260 260 261 261 261 261 260 260 260 260 260 259 259 258 258 258 257 257 256 256 256 256 256 256 255 255 255 256 254 251 249 249 250 250 251 251 252 252 253 253 253 254
247 248 250 252 253 253 253 253 253 252 252 252 253 254 254 255 256 259 261 262 264 265 266 266 265 266 265 264 262 262 261 261 261 260 259 259 258 258 258 258 258 258 258 258 257 257 257 257 256 255 253 251 251 251 252 253 253 253 253 253 253 253 254
249 250 251 252 254 254 254 254 255 255 254 254 255 256 256 257 258 259 261 263 265 267 268 268 268 269 269 268 266 265 263 262 261 261 261 260 259 259 259 259 260 260 259 259 258 258 258 257 256 255 254 253 253 253 253 254 254 254 254 253 253 253 254
251 252 252 253 254 254 255 255 256 256 256 256 257 257 257 258 260 261 262 263 265 267 268 269 270 271 272 271 270 268 266 264 263 262 262 262 261 261 260 260 261 261 261 261 260 260 259 258 257 256 256 255 255 254 254 255 255 254 254 255 254 254 254
251 252 253 253 254 254 255 255 256 256 256 257 257 258 258 260 261 263 264 264 265 266 268 269 271 271 272 273 272 271 269 267 265 264 263 262 262 262 262 262 262 261 262 262 262 262 261 260 258 258 257 256 256 256 255 256 256 255 255 255 255 255 254
251 252 252 252 253 255 255 255 256 256 256 257 258 259 260 261 263 264 265 266 266 267 268 270 271 272 273 274 273 273 271 269 267 265 265 264 263 263 263 263 263 262 263 263 263 263 263 262 260 259 258 257 257 257 257 257 257 256 256 255 255 255 255
251 252 252 252 254 255 255 255 256 256 256 257 258 259 261 263 264 266 267 268 268 269 270 271 272 274 275 275 274 273 272 270 269 267 266 265 265 265 264 264 264 263 263 263 263 263 263 263 262 260 259 258 257 257 258 258 257 256 256 255 255 255 255
251 252 253 253 254 254 255 256 256 256 257 257 258 260 261 263 265 266 268 269 270 271 272 272 274 275 276 276 275 274 273 272 271 270 269 267 266 266 266 266 266 265 264 264 264 263 263 263 263 262 261 259 257 257 258 258 258 257 256 256 255 255 255
252 252 253 253 254 254 255 256 257 257 258 258 259 260 262 263 265 266 268 269 270 272 273 274 275 276 276 276 275 274 274 273 273 272 272 270 269 268 268 267 267 266 266 266 265 264 263 263 263 263 263 262 260 258 257 257 258 258 258 257 257 256 255
251 252 252 253 254 255 256 257 257 258 258 259 260 262 263 264 265 267 268 269 271 272 274 275 276 277 277 277 276 275 274 274 274 273 273 272 271 270 269 269 268 268 267 267 266 265 264 263 263 263 263 263 263 261 259 258 258 259 259 258 257 257 256
252 252 252 253 254 255 256 257 258 258 259 260 261 263 264 266 267 268 269 271 272 274 275 276 277 277 277 277 276 276 275 274 274 274 273 273 272 271 270 269 268 268 268 267 267 266 265 264 263 263 263 263 263 262 261 260 260 259 259 258 257 257 256
252 252 252 253 254 255 257 258 258 259 260 261 263 264 266 267 269 270 271 273 274 275 276 277 277 277 277 277 277 276 276 275 274 274 273 272 272 271 270 270 269 268 267 267 267 266 265 264 263 262 262 261 262 262 261 261 261 260 260 259 257 257 256
252 252 253 254 255 256 257 258 259 260 261 263 264 266 268 269 270 271 273 274 276 277 277 278 278 278 278 278 277 277 276 276 275 274 273 272 271 270 270 270 269 268 268 267 267 266 266 265 263 262 261 261 261 261 261 261 261 261 261 260 258 257 256
252 252 253 255 255 256 257 259 261 262 263 264 266 268 269 270 271 273 274 275 276 277 278 279 279 279 279 279 278 278 278 277 276 275 274 272 271 270 270 270 269 269 268 268 267 266 266 266 264 263 261 260 260 260 260 260 260 260 261 260 259 257 255
251 252 254 256 256 256 257 260 262 263 264 266 267 269 270 271 272 274 275 276 277 278 279 280 280 281 281 281 281 280 279 279 278 276 275 274 272 271 270 270 270 269 268 268 268 267 267 266 265 264 262 261 260 259 259 258 259 259 259 259 260 257 255
250 252 254 256 257 257 258 260 262 264 266 267 269 270 271 272 274 275 276 278 278 279 280 281 282 283 283 283 283 282 281 280 279 277 276 275 273 272 271 270 270 269 268 268 268 268 267 266 265 264 263 261 260 260 259 258 258 258 258 258 259 258 256
249 251 253 256 257 258 259 261 263 266 268 269 270 271 272 273 275 277 278 279 279 280 281 283 284 285 285 285 284 283 282 281 280 278 276 275 273 272 271 270 269 269 268 268 267 267 267 267 266 265 264 262 261 260 259 258 257 256 256 257 257 258 257
247 249 252 255 256 257 259 262 264 267 269 270 272 272 273 275 277 279 280 281 282 283 284 285 286 287 287 287 286 285 283 282 281 279 277 276 274 273 272 271 270 269 268 267 267 266 266 266 265 265 264 263 262 260 259 258 257 255 255 255 255 256 257
246 249 251 253 254 256 259 261 264 267 269 271 272 273 275 277 279 281 282 283 284 285 286 287 288 288 289 288 287 286 285 283 281 280 279 277 276 274 273 272 271 270 269 268 267 266 266 265 264 264 263 263 262 261 260 258 257 256 255 254 254 254 255
247 248 249 252 254 256 258 260 263 266 268 270 272 274 276 279 281 282 283 284 285 286 287 289 289 290 290 289 288 287 286 284 282 281 279 278 277 276 274 273 272 271 270 269 268 267 266 266 265 264 263 262 261 260 260 259 258 256 256 255 254 253 253
246 246 248 252 254 256 258 260 262 264 266 269 271 274 277 279 281 282 283 285 286 287 289 290 291 291 291 290 289 288 287 286 284 282 280 279 277 276 275 274 273 271 270 269 268 267 266 266 265 264 263 261 260 259 258 258 257 257 256 255 255 253 252
243 245 250 253 253 255 257 259 261 263 265 267 270 273 276 278 279 282 284 286 288 289 291 292 292 292 292 291 290 289 288 287 285 283 281 279 277 276 275 274 273 272 271 270 269 268 266 266 265 264 263 261 260 259 258 257 256 255 255 255 255 254 252
241 245 250 252 252 253 255 258 260 262 263 266 268 271 273 276 279 282 286 288 290 291 293 293 293 293 292 292 290 289 288 287 285 283 281 279 278 276 275 274 273 272 271 270 269 268 267 266 264 263 262 261 260 259 258 257 256 255 254 254 254 254 253
240 243 246 250 251 252 255 259 260 260 262 264 267 269 273 277 281 284 288 290 291 293 294 294 294 294 293 293 291 290 289 287 284 282 281 279 278 276 275 274 273 272 271 270 269 268 267 266 265 264 262 261 260 258 257 256 255 254 253 253 253 253 253
238 240 242 246 249 252 257 260 260 260 262 264 267 271 275 278 282 285 288 290 293 295 296 296 295 295 294 293 292 291 289 287 284 282 280 279 278 277 275 274 273 272 272 271 270 269 268 267 265 264 263 261 260 258 257 256 255 254 253 252 252 252 252
236 239 241 245 250 254 259 259 258 260 262 265 268 272 276 280 283 286 289 292 295 297 297 297 297 296 296 295 293 292 290 287 285 282 281 280 279 277 276 274 273 273 272 271 270 269 267 266 265 264 263 261 260 259 257 256 255 254 253 252 252 251 251
236 239 243 247 250 254 257 257 258 260 264 267 270 274 278 282 285 288 291 294 296 297 298 299 299 298 297 296 295 293 290 288 285 284 282 281 279 278 276 275 274 273 272 271 270 268 267 266 264 263 262 261 260 259 257 256 255 254 253 252 252 250 250
236 240 244 247 250 252 255 257 259 263 267 270 273 277 280 283 286 289 292 294 296 298 300 301 301 299 299 297 296 293 291 288 286 285 283 282 280 279 277 276 274 273 272 271 270 268 267 265 264 262 261 260 259 258 257 256 255 254 253 252 251 250 248
236 241 244 247 249 251 254 259 263 268 271 273 276 278 280 282 286 289 292 295 297 299 301 302 301 300 299 298 297 294 291 289 287 286 285 284 282 280 278 277 276 274 273 271 270 268 266 265 263 262 260 259 257 257 256 255 254 253 252 251 251 250 248
237 242 245 246 248 251 256 262 267 270 273 275 276 278 280 283 287 290 293 296 298 299 301 303 302 301 300 299 297 294 291 289 288 288 286 285 283 281 280 278 277 275 274 272 270 268 266 264 263 261 260 258 257 256 255 254 253 252 251 250 250 249 248
239 243 245 248 250 254 259 265 269 271 273 274 276 278 282 285 288 291 295 297 298 299 302 303 303 303 301 299 297 295 292 291 290 289 288 286 284 283 281 280 279 277 275 273 271 269 267 265 263 261 259 258 257 255 254 253 252 251 250 249 249 248 248
239 242 246 250 253 257 261 266 269 270 271 273 277 280 283 287 290 293 296 297 298 300 302 303 304 303 302 300 298 296 294 292 291 290 289 287 286 284 283 281 280 278 275 274 272 270 267 265 262 260 259 258 256 254 253 251 250 249 249 248 247 247 246
236 240 247 252 256 259 263 265 268 270 272 276 279 282 286 289 292 294 296 298 299 300 302 304 304 304 302 301 299 297 295 294 292 291 290 289 287 286 285 282 280 278 276 274 272 270 267 265 262 261 259 257 255 253 251 250 249 248 247 246 246 245 245